Location: Dead Woman Crossing
(43.5369°N, 106.3228°W)
Time: 02:27:42
(UTC+00:00)

ZACube-1 - Visible Passes

Search period start: 28 June 2022 00:00
Search period end: 08 July 2022 00:00
Orbit: 581 x 662 km, 97.6° (Epoch: 27 June)

Date Brightness Start Highest point End Pass type
(mag) Time Alt. Az. Time Alt. Az. Time Alt. Az.
29 Jun ? 09:45:45 10° ENE 09:47:52 13° E 09:49:59 10° ESE visible
30 Jun ? 10:02:33 10° NE 10:05:51 20° E 10:09:11 10° SE visible
01 Jul ? 10:19:51 10° NE 10:23:48 30° E 10:27:47 10° SSE visible
02 Jul ? 10:37:22 10° NNE 10:41:42 46° E 10:46:03 10° S visible
04 Jul ? 09:39:16 10° ENE 09:40:41 11° E 09:42:07 10° ESE visible
05 Jul ? 09:55:40 10° NE 09:58:42 17° E 10:01:43 10° SE visible
06 Jul ? 10:12:50 10° NE 10:16:39 26° E 10:20:27 10° SSE visible
07 Jul ? 10:30:17 10° NNE 10:34:33 39° E 10:38:49 10° SSE visible
